| time (UTC) | temp F | wind direction | speed MPH | gust MPH | rain 1hr in | rain 24hr in | rain mn in | humidity % | barometer mb |
| 20260905093540 | 72 | 336 | 4.0 | 9.0 | 0.00 | 0.00 | 0.00 | 64 | 1023.4 |
| 20260905093039 | 72 | 9 | 3.0 | 9.0 | 0.00 | 0.00 | 0.00 | 61 | 1023.4 |
| 20260905092558 | 72 | 328 | 2.0 | 8.0 | 0.00 | 0.00 | 0.00 | 62 | 1023.4 |
| 20260905092031 | 71 | 17 | 4.0 | 8.0 | 0.00 | 0.00 | 0.00 | 63 | 1023.3 |
| 20260905091607 | 71 | 323 | 4.0 | 9.0 | 0.00 | 0.00 | 0.00 | 64 | 1023.3 |
| 20260905091028 | 70 | 5 | 4.0 | 9.0 | 0.00 | 0.00 | 0.00 | 64 | 1023.3 |
| 20260905090545 | 70 | 343 | 3.0 | 8.0 | 0.00 | 0.00 | 0.00 | 66 | 1023.3 |
| 20260905090037 | 70 | 20 | 3.0 | 8.0 | 0.00 | 0.00 | 0.00 | 66 | 1023.2 |
| 20260905085529 | 70 | 332 | 5.0 | 9.0 | 0.00 | 0.00 | 0.00 | 66 | 1023.3 |
| 20260905085037 | 69 | 324 | 4.0 | 9.0 | 0.00 | 0.00 | 0.00 | 67 | 1023.2 |
| 20260905084546 | 69 | 34 | 4.0 | 10.0 | 0.00 | 0.00 | 0.00 | 70 | 1023.2 |
| 20260905084040 | 69 | 30 | 4.0 | 9.0 | 0.00 | 0.00 | 0.00 | 68 | 1023.2 |
| 20260905083558 | 69 | 5 | 4.0 | 9.0 | 0.00 | 0.00 | 0.00 | 68 | 1023.3 |
| 20260905083028 | 69 | 334 | 4.0 | 8.0 | 0.00 | 0.00 | 0.00 | 70 | 1023.3 |
| 20260905082607 | 68 | 360 | 3.0 | 8.0 | 0.00 | 0.00 | 0.00 | 71 | 1023.2 |
| 20260905082039 | 68 | 16 | 2.0 | 9.0 | 0.00 | 0.00 | 0.00 | 71 | 1023.2 |
| 20260905081531 | 68 | 24 | 4.0 | 9.0 | 0.00 | 0.00 | 0.00 | 72 | 1023.1 |
| 20260905081044 | 68 | 360 | 4.0 | 9.0 | 0.00 | 0.00 | 0.00 | 71 | 1023.0 |
| 20260905080537 | 67 | 33 | 4.0 | 10.0 | 0.00 | 0.00 | 0.00 | 73 | 1023.0 |
| 20260905080039 | 67 | 5 | 3.0 | 10.0 | 0.00 | 0.00 | 0.00 | 74 | 1023.0 |
| 20260905075557 | 67 | 23 | 3.0 | 11.0 | 0.00 | 0.00 | 0.00 | 74 | 1023.0 |
| 20260905075032 | 67 | 360 | 6.0 | 10.0 | 0.00 | 0.00 | 0.00 | 74 | 1022.9 |
| 20260905074541 | 67 | 5 | 4.0 | 12.0 | 0.00 | 0.00 | 0.00 | 74 | 1022.9 |
| 20260905074029 | 66 | 9 | 3.0 | 12.0 | 0.00 | 0.00 | 0.00 | 76 | 1022.9 |
| 20260905073540 | 66 | 10 | 6.0 | 9.0 | 0.00 | 0.00 | 0.00 | 76 | 1022.9 |
| 20260905073032 | 66 | 15 | 4.0 | 8.0 | 0.00 | 0.00 | 0.00 | 76 | 1022.8 |
| 20260905072543 | 66 | 355 | 4.0 | 8.0 | 0.00 | 0.00 | 0.00 | 76 | 1022.7 |
| 20260905072034 | 66 | 18 | 4.0 | 8.0 | 0.00 | 0.00 | 0.00 | 76 | 1022.7 |
| 20260905071530 | 66 | 346 | 3.0 | 8.0 | 0.00 | 0.00 | 0.00 | 77 | 1022.6 |
| 20260905071041 | 66 | 355 | 3.0 | 8.0 | 0.00 | 0.00 | 0.00 | 78 | 1022.5 |
| 20260905070557 | 66 | 355 | 2.0 | 6.0 | 0.00 | 0.00 | 0.00 | 79 | 1022.5 |
| 20260905070045 | 65 | 355 | 2.0 | 6.0 | 0.00 | 0.00 | 0.00 | 79 | 1022.4 |
| 20260905065537 | 65 | 339 | 2.0 | 9.0 | 0.00 | 0.00 | 0.00 | 80 | 1022.4 |
| 20260905065033 | 65 | 24 | 4.0 | 8.0 | 0.00 | 0.00 | 0.00 | 80 | 1022.5 |
| 20260905064548 | 65 | 329 | 3.0 | 6.0 | 0.00 | 0.00 | 0.00 | 80 | 1022.5 |
| 20260905064031 | 64 | 13 | 2.0 | 6.0 | 0.00 | 0.00 | 0.00 | 80 | 1022.4 |
| 20260905063543 | 64 | 11 | 2.0 | 6.0 | 0.00 | 0.00 | 0.00 | 80 | 1022.4 |
| 20260905063037 | 64 | 355 | 3.0 | 6.0 | 0.00 | 0.00 | 0.00 | 80 | 1022.3 |
| 20260905062530 | 64 | 300 | 1.0 | 10.0 | 0.00 | 0.00 | 0.00 | 80 | 1022.3 |
| 20260905062027 | 64 | 348 | 3.0 | 8.0 | 0.00 | 0.00 | 0.00 | 80 | 1022.3 |
| 20260905061606 | 64 | 5 | 2.0 | 6.0 | 0.00 | 0.00 | 0.00 | 80 | 1022.2 |
| 20260905061036 | 64 | 348 | 2.0 | 6.0 | 0.00 | 0.00 | 0.00 | 80 | 1022.2 |
| 20260905060546 | 64 | 346 | 1.0 | 11.0 | 0.00 | 0.00 | 0.00 | 80 | 1022.1 |
| 20260905060041 | 64 | 355 | 4.0 | 11.0 | 0.00 | 0.00 | 0.00 | 80 | 1022.1 |
| 20260905055533 | 64 | 338 | 3.0 | 8.0 | 0.00 | 0.00 | 0.00 | 80 | 1022.0 |
| 20260905055029 | 64 | 335 | 3.0 | 11.0 | 0.00 | 0.00 | 0.00 | 80 | 1022.0 |
| 20260905054545 | 64 | 360 | 4.0 | 11.0 | 0.00 | 0.00 | 0.00 | 80 | 1021.9 |
| 20260905054033 | 64 | 309 | 4.0 | 8.0 | 0.00 | 0.00 | 0.00 | 80 | 1021.8 |
| 20260905053536 | 64 | 334 | 3.0 | 9.0 | 0.00 | 0.00 | 0.00 | 81 | 1021.8 |
| 20260905053031 | 64 | 355 | 4.0 | 8.0 | 0.00 | 0.00 | 0.00 | 81 | 1021.7 |
| 20260905052531 | 64 | 344 | 3.0 | 9.0 | 0.00 | 0.00 | 0.00 | 81 | 1021.6 |
| 20260905052045 | 64 | 337 | 4.0 | 8.0 | 0.00 | 0.00 | 0.00 | 81 | 1021.5 |
| 20260905051544 | 65 | 319 | 2.0 | 9.0 | 0.00 | 0.00 | 0.00 | 81 | 1021.4 |
| 20260905051038 | 65 | 344 | 4.0 | 9.0 | 0.00 | 0.00 | 0.00 | 81 | 1021.4 |
| 20260905050550 | 65 | 331 | 3.0 | 9.0 | 0.00 | 0.00 | 0.00 | 82 | 1021.2 |
| 20260905050034 | 65 | 355 | 3.0 | 9.0 | 0.00 | 0.00 | 0.00 | 82 | 1021.2 |
| 20260905045543 | 65 | 337 | 3.0 | 8.0 | 0.00 | 0.00 | 0.00 | 82 | 1021.2 |
| 20260905045044 | 65 | 9 | 4.0 | 8.0 | 0.00 | 0.00 | 0.00 | 82 | 1021.1 |
| 20260905044541 | 65 | 5 | 3.0 | 6.0 | 0.00 | 0.00 | 0.00 | 82 | 1021.1 |
| 20260905044037 | 65 | 340 | 3.0 | 6.0 | 0.00 | 0.00 | 0.00 | 82 | 1021.1 |
| 20260905043532 | 65 | 5 | 3.0 | 8.0 | 0.00 | 0.00 | 0.00 | 82 | 1021.0 |
| 20260905043103 | 65 | 326 | 4.0 | 9.0 | 0.00 | 0.00 | 0.00 | 82 | 1021.0 |
| 20260905042536 | 65 | 324 | 4.0 | 9.0 | 0.00 | 0.00 | 0.00 | 84 | 1020.9 |
| 20260905042046 | 65 | 336 | 4.0 | 9.0 | 0.00 | 0.00 | 0.00 | 85 | 1020.9 |
| 20260905041544 | 65 | 329 | 4.0 | 9.0 | 0.00 | 0.00 | 0.00 | 87 | 1021.0 |
| 20260905041041 | 65 | 327 | 2.0 | 6.0 | 0.00 | 0.00 | 0.00 | 88 | 1021.0 |
| 20260905040534 | 65 | 9 | 3.0 | 6.0 | 0.00 | 0.00 | 0.00 | 88 | 1020.9 |
| 20260905040030 | 65 | 338 | 3.0 | 6.0 | 0.00 | 0.00 | 0.00 | 88 | 1020.8 |
| 20260905035609 | 65 | 342 | 2.0 | 4.0 | 0.00 | 0.00 | 0.00 | 88 | 1020.8 |
| 20260905035029 | 65 | 335 | 1.0 | 4.0 | 0.00 | 0.00 | 0.00 | 88 | 1020.8 |
| 20260905034604 | 65 | 305 | 2.0 | 4.0 | 0.00 | 0.00 | 0.00 | 88 | 1020.7 |
| 20260905034040 | 65 | 355 | 1.0 | 4.0 | 0.00 | 0.00 | 0.00 | 88 | 1020.7 |
| 20260905033557 | 65 | 341 | 2.0 | 4.0 | 0.00 | 0.00 | 0.00 | 88 | 1020.6 |
| 20260905033105 | 65 | 331 | 1.0 | 2.0 | 0.00 | 0.00 | 0.00 | 88 | 1020.6 |
| 20260905032535 | 66 | 332 | 1.0 | 4.0 | 0.00 | 0.00 | 0.00 | 87 | 1020.6 |
| 20260905032032 | 66 | 360 | 2.0 | 4.0 | 0.00 | 0.00 | 0.00 | 87 | 1020.6 |
| 20260905031540 | 66 | 351 | 2.0 | 4.0 | 0.00 | 0.00 | 0.00 | 86 | 1020.5 |
| 20260905031037 | 66 | 22 | 1.0 | 4.0 | 0.00 | 0.00 | 0.00 | 86 | 1020.5 |
| 20260905030528 | 66 | 329 | 1.0 | 4.0 | 0.00 | 0.00 | 0.00 | 85 | 1020.4 |
| 20260905030055 | 66 | 5 | 2.0 | 8.0 | 0.00 | 0.00 | 0.00 | 85 | 1020.4 |
| 20260905025529 | 66 | 339 | 4.0 | 8.0 | 0.00 | 0.00 | 0.00 | 84 | 1020.4 |
| 20260905025043 | 66 | 342 | 3.0 | 8.0 | 0.00 | 0.00 | 0.00 | 84 | 1020.3 |
| 20260905024543 | 67 | 355 | 2.0 | 5.0 | 0.00 | 0.00 | 0.00 | 83 | 1020.4 |
| 20260905024040 | 67 | 333 | 1.0 | 6.0 | 0.00 | 0.00 | 0.00 | 82 | 1020.3 |
| 20260905023558 | 67 | 19 | 2.0 | 6.0 | 0.00 | 0.00 | 0.00 | 82 | 1020.2 |
| 20260905023030 | 67 | 5 | 1.0 | 8.0 | 0.00 | 0.00 | 0.00 | 82 | 1020.2 |
| 20260905022542 | 67 | 331 | 4.0 | 8.0 | 0.00 | 0.00 | 0.00 | 82 | 1020.2 |
| 20260905022046 | 67 | 350 | 2.0 | 6.0 | 0.00 | 0.00 | 0.00 | 81 | 1019.9 |
| 20260905021541 | 67 | 5 | 3.0 | 8.0 | 0.00 | 0.00 | 0.00 | 81 | 1019.9 |
| 20260905021028 | 67 | 328 | 1.0 | 8.0 | 0.00 | 0.00 | 0.00 | 81 | 1019.7 |
| 20260905020538 | 67 | 5 | 2.0 | 8.0 | 0.00 | 0.00 | 0.00 | 81 | 1019.7 |
| 20260905020032 | 67 | 19 | 3.0 | 8.0 | 0.00 | 0.00 | 0.00 | 81 | 1019.8 |
| 20260905015545 | 67 | 339 | 2.0 | 5.0 | 0.00 | 0.00 | 0.00 | 82 | 1019.6 |
| 20260905015042 | 67 | 5 | 2.0 | 6.0 | 0.00 | 0.00 | 0.00 | 82 | 1019.8 |
| 20260905014540 | 67 | 9 | 2.0 | 8.0 | 0.00 | 0.00 | 0.00 | 81 | 1019.6 |
| 20260905014027 | 67 | 17 | 3.0 | 10.0 | 0.00 | 0.00 | 0.00 | 81 | 1019.6 |
| 20260905013604 | 68 | 13 | 5.0 | 10.0 | 0.00 | 0.00 | 0.00 | 82 | 1019.6 |
| 20260905013037 | 68 | 339 | 6.0 | 10.0 | 0.00 | 0.00 | 0.00 | 82 | 1019.6 |
| 20260905012533 | 68 | 17 | 6.0 | 10.0 | 0.00 | 0.00 | 0.00 | 83 | 1019.6 |
| 20260905012044 | 68 | 355 | 7.0 | 10.0 | 0.00 | 0.00 | 0.00 | 83 | 1019.5 |
| 20260905011542 | 68 | 16 | 4.0 | 9.0 | 0.00 | 0.00 | 0.00 | 84 | 1019.4 |
| 20260905011029 | 68 | 349 | 1.0 | 4.0 | 0.00 | 0.00 | 0.00 | 85 | 1019.3 |
| 20260905010540 | 68 | 323 | 1.0 | 3.0 | 0.00 | 0.00 | 0.00 | 85 | 1019.3 |
| 20260905010033 | 68 | 11 | 2.0 | 5.0 | 0.00 | 0.00 | 0.00 | 85 | 1019.3 |
| 20260905005545 | 68 | 350 | 1.0 | 5.0 | 0.00 | 0.00 | 0.00 | 84 | 1019.2 |
| 20260905005042 | 68 | 360 | 2.0 | 5.0 | 0.00 | 0.00 | 0.00 | 84 | 1019.3 |
| 20260905004601 | 68 | 350 | 1.0 | 5.0 | 0.00 | 0.00 | 0.00 | 84 | 1019.3 |
| 20260905004035 | 68 | 329 | 2.0 | 5.0 | 0.00 | 0.00 | 0.00 | 84 | 1019.4 |
| 20260905003543 | 69 | 360 | 3.0 | 5.0 | 0.00 | 0.00 | 0.00 | 84 | 1019.3 |
| 20260905003036 | 69 | 342 | 2.0 | 6.0 | 0.00 | 0.00 | 0.00 | 84 | 1019.3 |
| 20260905002547 | 69 | 360 | 4.0 | 6.0 | 0.00 | 0.00 | 0.00 | 84 | 1019.2 |
| 20260905002044 | 69 | 344 | 3.0 | 6.0 | 0.00 | 0.00 | 0.00 | 83 | 1019.2 |
| 20260905001602 | 69 | 5 | 3.0 | 6.0 | 0.00 | 0.00 | 0.00 | 83 | 1019.1 |
| 20260905001037 | 69 | 19 | 4.0 | 8.0 | 0.00 | 0.00 | 0.00 | 83 | 1019.0 |
| 20260905000528 | 69 | 355 | 3.0 | 8.0 | 0.00 | 0.00 | 0.00 | 82 | 1019.1 |
| 20260905000044 | 69 | 13 | 2.0 | 10.0 | 0.00 | 0.00 | 0.00 | 82 | 1019.2 |
| 20260904235548 | 69 | 355 | 3.0 | 10.0 | 0.00 | 0.00 | 0.00 | 82 | 1019.2 |
| 20260904235032 | 69 | 30 | 3.0 | 9.0 | 0.00 | 0.00 | 0.00 | 82 | 1019.0 |
| 20260904234533 | 69 | 5 | 4.0 | 10.0 | 0.00 | 0.00 | 0.00 | 82 | 1019.0 |
| 20260904234042 | 70 | 5 | 4.0 | 10.0 | 0.00 | 0.00 | 0.00 | 81 | 1019.1 |
| 20260904233539 | 70 | 355 | 4.0 | 9.0 | 0.00 | 0.00 | 0.00 | 81 | 1019.0 |
| 20260904233052 | 70 | 349 | 4.0 | 9.0 | 0.00 | 0.00 | 0.00 | 81 | 1019.0 |
| 20260904232548 | 70 | 318 | 3.0 | 6.0 | 0.00 | 0.00 | 0.00 | 81 | 1019.0 |
| 20260904232046 | 70 | 325 | 2.0 | 8.0 | 0.00 | 0.00 | 0.00 | 80 | 1018.9 |
| 20260904231545 | 70 | 334 | 4.0 | 8.0 | 0.00 | 0.00 | 0.00 | 79 | 1018.8 |
| 20260904231043 | 71 | 348 | 1.0 | 8.0 | 0.00 | 0.00 | 0.00 | 79 | 1019.0 |
| 20260904230535 | 71 | 24 | 3.0 | 8.0 | 0.00 | 0.00 | 0.00 | 79 | 1018.9 |
| 20260904230028 | 71 | 360 | 3.0 | 11.0 | 0.00 | 0.00 | 0.00 | 78 | 1019.0 |
| 20260904225544 | 71 | 15 | 5.0 | 11.0 | 0.00 | 0.00 | 0.00 | 78 | 1019.0 |
| 20260904225034 | 71 | 303 | 5.0 | 9.0 | 0.00 | 0.00 | 0.00 | 78 | 1019.0 |
| 20260904224531 | 71 | 355 | 5.0 | 11.0 | 0.00 | 0.00 | 0.00 | 77 | 1018.9 |
| 20260904224045 | 72 | 360 | 5.0 | 11.0 | 0.00 | 0.00 | 0.00 | 77 | 1018.9 |
| 20260904223537 | 72 | 355 | 4.0 | 11.0 | 0.00 | 0.00 | 0.00 | 78 | 1018.8 |
| 20260904223106 | 72 | 355 | 4.0 | 11.0 | 0.00 | 0.00 | 0.00 | 78 | 1018.8 |
| 20260904222600 | 72 | 355 | 5.0 | 8.0 | 0.00 | 0.00 | 0.00 | 78 | 1018.7 |
| 20260904222052 | 72 | 335 | 4.0 | 9.0 | 0.00 | 0.00 | 0.00 | 78 | 1018.6 |
| 20260904221543 | 72 | 323 | 4.0 | 11.0 | 0.00 | 0.00 | 0.00 | 77 | 1018.6 |
| 20260904221042 | 72 | 355 | 5.0 | 11.0 | 0.00 | 0.00 | 0.00 | 77 | 1018.6 |
| 20260904220541 | 73 | 350 | 4.0 | 14.0 | 0.00 | 0.00 | 0.00 | 75 | 1018.7 |
| 20260904220036 | 73 | 355 | 6.0 | 14.0 | 0.00 | 0.00 | 0.00 | 72 | 1018.7 |
| 20260904215532 | 74 | 313 | 5.0 | 9.0 | 0.00 | 0.00 | 0.00 | 70 | 1018.5 |
| 20260904215029 | 74 | 322 | 2.0 | 8.0 | 0.00 | 0.00 | 0.00 | 70 | 1018.4 |
| 20260904214537 | 74 | 342 | 3.0 | 9.0 | 0.00 | 0.00 | 0.00 | 70 | 1018.4 |
| 20260904214031 | 74 | 325 | 3.0 | 9.0 | 0.00 | 0.00 | 0.00 | 69 | 1018.4 |
| 20260904213531 | 74 | 321 | 2.0 | 9.0 | 0.00 | 0.00 | 0.00 | 69 | 1018.4 |
| 20260904213027 | 74 | 342 | 4.0 | 7.0 | 0.00 | 0.00 | 0.00 | 69 | 1018.3 |
| 20260904212529 | 74 | 355 | 2.0 | 8.0 | 0.00 | 0.00 | 0.00 | 69 | 1018.4 |
| 20260904212053 | 74 | 306 | 3.0 | 8.0 | 0.00 | 0.00 | 0.00 | 69 | 1018.4 |
| 20260904211531 | 74 | 338 | 4.0 | 6.0 | 0.00 | 0.00 | 0.00 | 70 | 1018.3 |
| 20260904211057 | 74 | 328 | 3.0 | 8.0 | 0.00 | 0.00 | 0.00 | 70 | 1018.4 |
| 20260904210529 | 74 | 355 | 4.0 | 8.0 | 0.00 | 0.00 | 0.00 | 70 | 1018.4 |
| 20260904210049 | 74 | 336 | 2.0 | 4.0 | 0.00 | 0.00 | 0.00 | 71 | 1018.4 |
| 20260904205542 | 74 | 346 | 2.0 | 5.0 | 0.00 | 0.00 | 0.00 | 71 | 1018.2 |
| 20260904205040 | 74 | 355 | 1.0 | 3.0 | 0.00 | 0.00 | 0.00 | 71 | 1018.2 |
| 20260904204534 | 74 | 296 | 1.0 | 3.0 | 0.00 | 0.00 | 0.00 | 71 | 1018.0 |
| 20260904204029 | 74 | 284 | 1.0 | 3.0 | 0.00 | 0.00 | 0.00 | 71 | 1017.9 |
| 20260904203539 | 74 | 304 | 1.0 | 3.0 | 0.00 | 0.00 | 0.00 | 71 | 1017.9 |
| 20260904203027 | 74 | 306 | 2.0 | 4.0 | 0.00 | 0.00 | 0.00 | 71 | 1017.9 |
| 20260904202547 | 74 | 318 | 1.0 | 4.0 | 0.00 | 0.00 | 0.00 | 70 | 1017.9 |
| 20260904202039 | 75 | 292 | 1.0 | 4.0 | 0.00 | 0.00 | 0.00 | 70 | 1017.9 |
| 20260904201535 | 75 | 324 | 1.0 | 4.0 | 0.00 | 0.00 | 0.00 | 69 | 1018.0 |
| 20260904201038 | 76 | 334 | 2.0 | 4.0 | 0.00 | 0.00 | 0.00 | 69 | 1017.9 |
| 20260904200555 | 76 | 332 | 1.0 | 4.0 | 0.00 | 0.00 | 0.00 | 68 | 1017.9 |
| 20260904200039 | 76 | 336 | 1.0 | 6.0 | 0.00 | 0.00 | 0.00 | 68 | 1017.9 |
| 20260904195532 | 76 | 321 | 3.0 | 6.0 | 0.00 | 0.00 | 0.00 | 68 | 1017.7 |
| 20260904195054 | 76 | 340 | 2.0 | 4.0 | 0.00 | 0.00 | 0.00 | 68 | 1017.7 |
| 20260904194547 | 76 | 355 | 1.0 | 8.0 | 0.00 | 0.00 | 0.00 | 68 | 1017.5 |
| 20260904194035 | 76 | 285 | 2.0 | 9.0 | 0.00 | 0.00 | 0.00 | 68 | 1017.5 |
| 20260904193547 | 76 | 355 | 3.0 | 9.0 | 0.00 | 0.00 | 0.00 | 68 | 1017.5 |
| 20260904193038 | 77 | 323 | 2.0 | 5.0 | 0.00 | 0.00 | 0.00 | 67 | 1017.4 |
| 20260904192548 | 77 | 309 | 2.0 | 6.0 | 0.00 | 0.00 | 0.00 | 67 | 1017.3 |
| 20260904192041 | 77 | 288 | 2.0 | 6.0 | 0.00 | 0.00 | 0.00 | 67 | 1017.1 |
| 20260904191534 | 77 | 306 | 2.0 | 5.0 | 0.00 | 0.00 | 0.00 | 66 | 1017.1 |
| 20260904191027 | 77 | 355 | 2.0 | 6.0 | 0.00 | 0.00 | 0.00 | 66 | 1017.1 |
| 20260904190539 | 77 | 318 | 2.0 | 8.0 | 0.00 | 0.00 | 0.00 | 66 | 1017.0 |
| 20260904190028 | 77 | 306 | 4.0 | 8.0 | 0.00 | 0.00 | 0.00 | 66 | 1016.9 |
| 20260904185534 | 77 | 306 | 1.0 | 4.0 | 0.00 | 0.00 | 0.00 | 66 | 1016.8 |
| 20260904185046 | 77 | 308 | 2.0 | 6.0 | 0.00 | 0.00 | 0.00 | 65 | 1016.8 |
| 20260904184547 | 77 | 290 | 3.0 | 8.0 | 0.00 | 0.00 | 0.00 | 65 | 1016.7 |
| 20260904184058 | 77 | 306 | 3.0 | 8.0 | 0.00 | 0.00 | 0.00 | 65 | 1016.6 |
| 20260904183535 | 78 | 304 | 3.0 | 8.0 | 0.00 | 0.00 | 0.00 | 64 | 1016.5 |
| 20260904183032 | 78 | 296 | 3.0 | 9.0 | 0.00 | 0.00 | 0.00 | 64 | 1016.5 |
| 20260904182536 | 78 | 305 | 4.0 | 9.0 | 0.00 | 0.00 | 0.00 | 64 | 1016.4 |
| 20260904182046 | 78 | 306 | 2.0 | 9.0 | 0.00 | 0.00 | 0.00 | 63 | 1016.4 |
| 20260904181540 | 79 | 292 | 4.0 | 11.0 | 0.00 | 0.00 | 0.00 | 62 | 1016.4 |
| 20260904181035 | 79 | 284 | 5.0 | 11.0 | 0.00 | 0.00 | 0.00 | 62 | 1016.2 |
| 20260904180553 | 79 | 324 | 3.0 | 9.0 | 0.00 | 0.00 | 0.00 | 62 | 1016.2 |
| 20260904180043 | 79 | 321 | 3.0 | 8.0 | 0.00 | 0.00 | 0.00 | 62 | 1016.2 |
| 20260904175533 | 79 | 327 | 3.0 | 12.0 | 0.00 | 0.00 | 0.00 | 61 | 1016.1 |
| 20260904175041 | 80 | 314 | 6.0 | 12.0 | 0.00 | 0.00 | 0.00 | 61 | 1016.1 |
| 20260904174534 | 80 | 269 | 4.0 | 9.0 | 0.00 | 0.00 | 0.00 | 60 | 1016.1 |
| 20260904174054 | 81 | 297 | 5.0 | 12.0 | 0.00 | 0.00 | 0.00 | 60 | 1016.2 |
| 20260904173553 | 81 | 295 | 7.0 | 12.0 | 0.00 | 0.00 | 0.00 | 59 | 1016.1 |
| 20260904173031 | 81 | 333 | 4.0 | 11.0 | 0.00 | 0.00 | 0.00 | 59 | 1016.0 |
| 20260904172545 | 81 | 305 | 5.0 | 10.0 | 0.00 | 0.00 | 0.00 | 58 | 1016.0 |
| 20260904172037 | 82 | 350 | 5.0 | 12.0 | 0.00 | 0.00 | 0.00 | 58 | 1016.0 |
| 20260904171547 | 82 | 314 | 8.0 | 13.0 | 0.00 | 0.00 | 0.00 | 57 | 1015.9 |
| 20260904171045 | 83 | 315 | 5.0 | 16.0 | 0.00 | 0.00 | 0.00 | 56 | 1016.0 |
| 20260904170537 | 83 | 295 | 7.0 | 16.0 | 0.00 | 0.00 | 0.00 | 56 | 1015.9 |
| 20260904170034 | 83 | 289 | 6.0 | 13.0 | 0.00 | 0.00 | 0.00 | 55 | 1015.9 |
| 20260904165545 | 83 | 281 | 7.0 | 13.0 | 0.00 | 0.00 | 0.00 | 56 | 1015.9 |
| 20260904165042 | 83 | 321 | 9.0 | 16.0 | 0.00 | 0.00 | 0.00 | 55 | 1015.9 |
| 20260904164538 | 84 | 306 | 10.0 | 18.0 | 0.00 | 0.00 | 0.00 | 55 | 1015.9 |
| 20260904164029 | 84 | 304 | 11.0 | 18.0 | 0.00 | 0.00 | 0.00 | 54 | 1015.9 |
| 20260904163547 | 85 | 304 | 6.0 | 15.0 | 0.00 | 0.00 | 0.00 | 53 | 1015.8 |
| 20260904163039 | 85 | 311 | 5.0 | 15.0 | 0.00 | 0.00 | 0.00 | 53 | 1015.9 |
| 20260904162529 | 85 | 336 | 9.0 | 17.0 | 0.00 | 0.00 | 0.00 | 53 | 1015.8 |
| 20260904162053 | 85 | 303 | 9.0 | 17.0 | 0.00 | 0.00 | 0.00 | 51 | 1015.8 |
| 20260904161608 | 86 | 294 | 6.0 | 16.0 | 0.00 | 0.00 | 0.00 | 51 | 1015.6 |
| 20260904161039 | 86 | 268 | 9.0 | 16.0 | 0.00 | 0.00 | 0.00 | 49 | 1015.7 |
| 20260904160547 | 86 | 311 | 8.0 | 16.0 | 0.00 | 0.00 | 0.00 | 48 | 1015.6 |
| 20260904160036 | 87 | 284 | 7.0 | 16.0 | 0.00 | 0.00 | 0.00 | 47 | 1015.6 |
| 20260904155546 | 87 | 327 | 5.0 | 17.0 | 0.00 | 0.00 | 0.00 | 47 | 1015.5 |
| 20260904155042 | 87 | 305 | 12.0 | 17.0 | 0.00 | 0.00 | 0.00 | 45 | 1015.5 |
| 20260904154533 | 88 | 291 | 8.0 | 16.0 | 0.00 | 0.00 | 0.00 | 45 | 1015.4 |
| 20260904154027 | 88 | 323 | 6.0 | 15.0 | 0.00 | 0.00 | 0.00 | 46 | 1015.3 |
| 20260904153543 | 88 | 296 | 8.0 | 15.0 | 0.00 | 0.00 | 0.00 | 46 | 1015.3 |
| 20260904153031 | 89 | 299 | 6.0 | 15.0 | 0.00 | 0.00 | 0.00 | 44 | 1015.3 |
| 20260904152540 | 89 | 290 | 9.0 | 15.0 | 0.00 | 0.00 | 0.00 | 41 | 1015.3 |
| 20260904152032 | 90 | 355 | 4.0 | 14.0 | 0.00 | 0.00 | 0.00 | 40 | 1015.3 |
| 20260904151543 | 90 | 318 | 6.0 | 14.0 | 0.00 | 0.00 | 0.00 | 36 | 1015.2 |
| 20260904151035 | 90 | 281 | 6.0 | 13.0 | 0.00 | 0.00 | 0.00 | 34 | 1015.3 |
| 20260904150546 | 90 | 277 | 5.0 | 13.0 | 0.00 | 0.00 | 0.00 | 34 | 1015.2 |
| 20260904150033 | 90 | 275 | 6.0 | 16.0 | 0.00 | 0.00 | 0.00 | 31 | 1015.3 |
| 20260904145548 | 90 | 290 | 10.0 | 16.0 | 0.00 | 0.00 | 0.00 | 30 | 1015.2 |
| 20260904145027 | 90 | 230 | 5.0 | 13.0 | 0.00 | 0.00 | 0.00 | 29 | 1015.2 |
| 20260904144539 | 90 | 329 | 7.0 | 15.0 | 0.00 | 0.00 | 0.00 | 30 | 1015.2 |
| 20260904144033 | 90 | 325 | 8.0 | 15.0 | 0.00 | 0.00 | 0.00 | 30 | 1015.2 |
| 20260904143545 | 91 | 287 | 7.0 | 16.0 | 0.00 | 0.00 | 0.00 | 28 | 1015.2 |
| 20260904143037 | 91 | 312 | 8.0 | 16.0 | 0.00 | 0.00 | 0.00 | 27 | 1015.2 |
| 20260904142552 | 90 | 266 | 10.0 | 17.0 | 0.00 | 0.00 | 0.00 | 29 | 1015.3 |
| 20260904142042 | 91 | 292 | 8.0 | 17.0 | 0.00 | 0.00 | 0.00 | 29 | 1015.2 |
| 20260904141533 | 90 | 252 | 6.0 | 17.0 | 0.00 | 0.00 | 0.00 | 33 | 1015.2 |
| 20260904141033 | 90 | 303 | 9.0 | 17.0 | 0.00 | 0.00 | 0.00 | 33 | 1015.2 |
| 20260904140542 | 91 | 234 | 4.0 | 13.0 | 0.00 | 0.00 | 0.00 | 31 | 1015.3 |
| 20260904140029 | 90 | 273 | 5.0 | 14.0 | 0.00 | 0.00 | 0.00 | 32 | 1015.2 |
| 20260904135539 | 91 | 283 | 7.0 | 14.0 | 0.00 | 0.00 | 0.00 | 34 | 1015.2 |
| 20260904135033 | 90 | 281 | 5.0 | 15.0 | 0.00 | 0.00 | 0.00 | 34 | 1015.3 |
| 20260904134545 | 90 | 276 | 8.0 | 12.0 | 0.00 | 0.00 | 0.00 | 33 | 1015.3 |
| 20260904134041 | 90 | 327 | 7.0 | 13.0 | 0.00 | 0.00 | 0.00 | 33 | 1015.3 |
| 20260904133532 | 90 | 253 | 5.0 | 14.0 | 0.00 | 0.00 | 0.00 | 34 | 1015.4 |
| 20260904133038 | 90 | 228 | 6.0 | 17.0 | 0.00 | 0.00 | 0.00 | 35 | 1015.4 |
| 20260904132529 | 90 | 325 | 10.0 | 17.0 | 0.00 | 0.00 | 0.00 | 34 | 1015.4 |
| 20260904132036 | 90 | 297 | 8.0 | 16.0 | 0.00 | 0.00 | 0.00 | 34 | 1015.5 |
| 20260904131531 | 90 | 270 | 5.0 | 17.0 | 0.00 | 0.00 | 0.00 | 34 | 1015.3 |
| 20260904131039 | 90 | 266 | 7.0 | 17.0 | 0.00 | 0.00 | 0.00 | 34 | 1015.4 |
| 20260904130532 | 90 | 242 | 5.0 | 14.0 | 0.00 | 0.00 | 0.00 | 33 | 1015.6 |
| 20260904130035 | 90 | 290 | 5.0 | 13.0 | 0.00 | 0.00 | 0.00 | 34 | 1015.6 |
| 20260904125529 | 89 | 331 | 4.0 | 19.0 | 0.00 | 0.00 | 0.00 | 35 | 1015.6 |
| 20260904125041 | 90 | 264 | 12.0 | 19.0 | 0.00 | 0.00 | 0.00 | 33 | 1015.6 |
| 20260904124539 | 90 | 296 | 6.0 | 13.0 | 0.00 | 0.00 | 0.00 | 35 | 1015.7 |
| 20260904124103 | 90 | 320 | 8.0 | 15.0 | 0.00 | 0.00 | 0.00 | 36 | 1015.7 |
| 20260904123535 | 90 | 282 | 7.0 | 15.0 | 0.00 | 0.00 | 0.00 | 35 | 1015.7 |
| 20260904123031 | 90 | 276 | 5.0 | 14.0 | 0.00 | 0.00 | 0.00 | 35 | 1015.7 |
| 20260904122543 | 89 | 221 | 8.0 | 15.0 | 0.00 | 0.00 | 0.00 | 33 | 1015.6 |
| 20260904122037 | 88 | 285 | 4.0 | 16.0 | 0.00 | 0.00 | 0.00 | 34 | 1015.7 |
| 20260904121528 | 88 | 281 | 7.0 | 16.0 | 0.00 | 0.00 | 0.00 | 35 | 1015.6 |
| 20260904121059 | 88 | 274 | 9.0 | 14.0 | 0.00 | 0.00 | 0.00 | 34 | 1015.5 |
| 20260904120531 | 87 | 264 | 6.0 | 13.0 | 0.00 | 0.00 | 0.00 | 37 | 1015.7 |
| 20260904120055 | 87 | 309 | 7.0 | 13.0 | 0.00 | 0.00 | 0.00 | 34 | 1015.8 |
| 20260904115546 | 87 | 246 | 8.0 | 14.0 | 0.00 | 0.00 | 0.00 | 36 | 1015.9 |
| 20260904115039 | 87 | 275 | 8.0 | 16.0 | 0.00 | 0.00 | 0.00 | 35 | 1015.9 |
| 20260904114535 | 87 | 323 | 5.0 | 18.0 | 0.00 | 0.00 | 0.00 | 40 | 1016.0 |
| 20260904114043 | 87 | 251 | 12.0 | 18.0 | 0.00 | 0.00 | 0.00 | 37 | 1016.0 |
| 20260904113536 | 87 | 287 | 7.0 | 16.0 | 0.00 | 0.00 | 0.00 | 35 | 1016.0 |
| 20260904113043 | 88 | 275 | 10.0 | 16.0 | 0.00 | 0.00 | 0.00 | 37 | 1016.1 |
| 20260904112532 | 87 | 314 | 6.0 | 13.0 | 0.00 | 0.00 | 0.00 | 40 | 1016.2 |
| 20260904112058 | 87 | 284 | 4.0 | 13.0 | 0.00 | 0.00 | 0.00 | 42 | 1016.3 |
| 20260904111547 | 87 | 229 | 7.0 | 13.0 | 0.00 | 0.00 | 0.00 | 41 | 1016.2 |
| 20260904111033 | 86 | 234 | 4.0 | 17.0 | 0.00 | 0.00 | 0.00 | 45 | 1016.4 |
| 20260904110548 | 86 | 294 | 7.0 | 17.0 | 0.00 | 0.00 | 0.00 | 43 | 1016.4 |
| 20260904110035 | 86 | 291 | 6.0 | 14.0 | 0.00 | 0.00 | 0.00 | 45 | 1016.4 |
| 20260904105541 | 86 | 244 | 6.0 | 17.0 | 0.00 | 0.00 | 0.00 | 46 | 1016.4 |
| 20260904105036 | 85 | 290 | 7.0 | 19.0 | 0.00 | 0.00 | 0.00 | 46 | 1016.4 |
| 20260904104529 | 85 | 290 | 8.0 | 19.0 | 0.00 | 0.00 | 0.00 | 46 | 1016.5 |
| 20260904104034 | 85 | 276 | 6.0 | 16.0 | 0.00 | 0.00 | 0.00 | 48 | 1016.4 |
| 20260904103546 | 85 | 298 | 6.0 | 16.0 | 0.00 | 0.00 | 0.00 | 47 | 1016.4 |
| 20260904103033 | 85 | 288 | 6.0 | 15.0 | 0.00 | 0.00 | 0.00 | 50 | 1016.5 |
| 20260904102545 | 84 | 224 | 7.0 | 15.0 | 0.00 | 0.00 | 0.00 | 50 | 1016.6 |
| 20260904102038 | 84 | 257 | 6.0 | 18.0 | 0.00 | 0.00 | 0.00 | 50 | 1016.6 |
| 20260904101546 | 84 | 291 | 7.0 | 18.0 | 0.00 | 0.00 | 0.00 | 54 | 1016.7 |
| 20260904101037 | 83 | 306 | 7.0 | 12.0 | 0.00 | 0.00 | 0.00 | 53 | 1016.7 |
| 20260904100609 | 83 | 296 | 5.0 | 15.0 | 0.00 | 0.00 | 0.00 | 54 | 1016.7 |
| 20260904100035 | 83 | 320 | 7.0 | 15.0 | 0.00 | 0.00 | 0.00 | 55 | 1016.7 |
| 20260904095546 | 83 | 236 | 5.0 | 13.0 | 0.00 | 0.00 | 0.00 | 56 | 1016.8 |
| 20260904095037 | 82 | 199 | 2.0 | 10.0 | 0.00 | 0.00 | 0.00 | 58 | 1016.7 |
| 20260904094547 | 82 | 258 | 3.0 | 12.0 | 0.00 | 0.00 | 0.00 | 58 | 1016.8 |
| 20260904094039 | 81 | 252 | 4.0 | 12.0 | 0.00 | 0.00 | 0.00 | 58 | 1016.9 |